Caldwell Industrial

Airport
ICAO code: 
KEUL
Summary
ICAO Region: 
NAM
Territory: 
Location: 
Caldwell, Canyon County, Idaho,
Elevation: 
2432 ft
Coordinates: 
Aerial View: 
43° 38' 27.905" N, 116° 38' 6.337" W
Airport CFIT: 
Altimeter Temperature Error Correction
Metar
Observation
KEUL 241456Z AUTO 00000KT 10SM OVC018 M01/M02 A3030 RMK AO2 SLP282 T10111022 56009 FZRANO
Station
Caldwell, Caldwell Industrial Airport
Date/Time
2022-01-24 14:56:00
Wind direction
Wind speed
00 kts
Lowest cloud amount
overcast
Temperature
-1.1°C
Dew point
-2.2°C
Humidity
92%
Weather condition
n/a

Description

Caldwell Industrial Airport is a city-owned public-use airport located 5 km southeast of the central business district of Caldwell, a city in Canyon County, Idaho, United States.

Climatology

Cold Semi-arid climate (Köppen climate classification BSk). - Hot, sometimes extremely hot summers and cold, sometimes very cold winters. Some snowfall during the winter. Areas featuring cold semi-arid climates are sometimes subject to major temperature swings during a 24 hour period.

Runways

Designator Length Width Surface Rops
12/30 1676 30 ASP No/No
Airport map: 
Aerial View: 

SKYbrary Partners:

Safety knowledge contributed by: